IW8PDD-3 Weather Reports


time (UTC)temp
F
wind
direction
speed
knots
gust
knots
rain 1hr
in
rain 24hr
in
rain mn
in
humidity
%
barometer
mb
20260505171855 66 0.0 0.0 0.00 0.00 0.00 65 1017.0
20260505165852 66 0.0 0.0 0.00 0.00 0.00 64 1017.1
20260505163848 68 0.0 0.0 0.00 0.00 0.00 62 1017.1
20260505161845 68 0.0 0.0 0.00 0.00 0.00 62 1017.2
20260505151835 73 0.0 0.0 0.00 0.00 0.00 58 1016.7
20260505123807 75 0.0 0.0 0.00 0.00 0.00 57 1017.6
20260505121803 72 0.0 0.0 0.00 0.00 0.00 58 1017.5
20260505115800 74 0.0 0.0 0.00 0.00 0.00 57 1017.6
20260505113756 74 0.0 0.0 0.00 0.00 0.00 58 1017.8
20260505111753 72 0.0 0.0 0.00 0.00 0.00 59 1017.9
20260505101743 69 0.0 0.0 0.00 0.00 0.00 59 1018.0
20260505095739 70 0.0 0.0 0.00 0.00 0.00 58 1018.1
20260505093736 69 0.0 0.0 0.00 0.00 0.00 58 1018.1
20260505091732 69 0.0 0.0 0.00 0.00 0.00 57 1018.2
20260505085729 70 0.0 0.0 0.00 0.00 0.00 57 1018.1
20260505083725 68 0.0 0.0 0.00 0.00 0.00 58 1018.2
20260505081722 69 0.0 0.0 0.00 0.00 0.00 58 1018.3
20260505075718 68 0.0 0.0 0.00 0.00 0.00 58 1018.1
20260505073715 68 0.0 0.0 0.00 0.00 0.00 59 1018.0
20260505071711 68 0.0 0.0 0.00 0.00 0.00 61 1018.2
20260505065708 67 0.0 0.0 0.00 0.00 0.00 63 1018.1
20260505063704 66 0.0 0.0 0.00 0.00 0.00 63 1018.3
20260505061701 65 0.0 0.0 0.00 0.00 0.00 63 1018.3
20260505055658 65 0.0 0.0 0.00 0.00 0.00 63 1018.1
20260505053654 64 0.0 0.0 0.00 0.00 0.00 63 1017.8
20260505051651 64 0.0 0.0 0.00 0.00 0.00 62 1017.8
20260505021619 64 0.0 0.0 0.00 0.00 0.00 56 1017.4
20260505015616 64 0.0 0.0 0.00 0.00 0.00 57 1017.6
20260505011609 64 0.0 0.0 0.00 0.00 0.00 56 1017.7
20260505005606 64 0.0 0.0 0.00 0.00 0.00 55 1017.7
20260505003602 64 0.0 0.0 0.00 0.00 0.00 54 1017.8
20260505001559 64 0.0 0.0 0.00 0.00 0.00 54 1017.9
20260504235555 64 0.0 0.0 0.00 0.00 0.00 53 1018.2
20260504233552 65 0.0 0.0 0.00 0.00 0.00 52 1018.5
20260504231548 64 0.0 0.0 0.00 0.00 0.00 52 1018.6
20260504223541 65 0.0 0.0 0.00 0.00 0.00 51 1019.1
20260504221538 65 0.0 0.0 0.00 0.00 0.00 52 1018.8
20260504215534 65 0.0 0.0 0.00 0.00 0.00 52 1018.9
20260504213531 65 0.0 0.0 0.00 0.00 0.00 52 1019.2
20260504211527 65 0.0 0.0 0.00 0.00 0.00 53 1019.0
20260504205524 66 0.0 0.0 0.00 0.00 0.00 52 1019.1
20260504203521 66 0.0 0.0 0.00 0.00 0.00 52 1019.4
20260504201517 67 0.0 0.0 0.00 0.00 0.00 51 1019.3
20260504195514 67 0.0 0.0 0.00 0.00 0.00 50 1019.4
20260504193510 67 0.0 0.0 0.00 0.00 0.00 50 1019.2
20260504191507 68 0.0 0.0 0.00 0.00 0.00 49 1019.2
20260504185503 68 0.0 0.0 0.00 0.00 0.00 49 1019.0
20260504183500 68 0.0 0.0 0.00 0.00 0.00 50 1018.9
20260504181456 69 0.0 0.0 0.00 0.00 0.00 49 1018.8
20260504175453 69 0.0 0.0 0.00 0.00 0.00 47 1018.7